Flag for France Weather past 2 weeks in Dijon, France

Now
48 °F

Mostly cloudy.


Feels Like: 43 °F
Forecast: 51 / 57 °F
Wind: 12 mph from South

Location: Dijon Airport

Current Time: Mar 29, 2015 at 7:16:49 AM

Latest Report: Mar 29, 2015 at 6:30 AM


Visibility: N/A

Pressure: 30.04 "Hg

Humidity: 94%

Dew point: 46 °F

Location of DijonLocation

Historic Weather in Dijon — Graph

°F

Dijon temperature yesterday

Maximum temperature yesterday: 50 °F (at 11:00 AM)
Minimum temperature yesterday: 32 °F (at 4:30 AM)
Average temperature yesterday: 43 °F

Past Weeks' High & Low Weather Summary

 TemperatureHumidityPressure
High68 °F (Mar 18, 3:00 PM)100% (Mar 28, 7:00 AM)30.27 "Hg (Mar 28, 7:00 AM)
Low32 °F (Mar 23, 4:30 AM)30% (Mar 18, 4:30 PM)29.65 "Hg (Mar 24, 6:00 PM)
Average46 °F71%30.06 "Hg
* Reported Mar 14 5:00 AM — Mar 29 6:00 AM, Dijon, Weather by CustomWeather, © 2015

Note: Actual official high and low records may vary slightly from our data, if they occured in-between our weather recording intervals... More about our weather records

Advertising

Dijon weather history for previous 24 hours

 ConditionsComfort  
Time TempWeatherWind HumidityBarometerVisibility
6:00 AM
Sun, Mar 29
48 °FMostly cloudy.10 mph94%30.04 "HgN/A
5:30 AM48 °FDrizzle. Overcast.10 mph94%30.04 "HgN/A
5:00 AM48 °FMostly cloudy.9 mph94%30.07 "HgN/A
4:30 AM48 °FOvercast.9 mph87%30.07 "HgN/A
4:00 AM48 °FMostly cloudy.7 mph87%30.07 "HgN/A
3:30 AM50 °FMostly cloudy.7 mph82%30.09 "HgN/A
3:00 AM50 °FMostly cloudy.9 mph82%30.09 "HgN/A
1:30 AM50 °FPartly cloudy.10 mph82%30.09 "HgN/A
1:00 AM52 °FPartly cloudy.13 mph77%30.09 "HgN/A
12:30 AM50 °FPartly cloudy.9 mph82%30.09 "HgN/A
12:00 AM50 °FPassing clouds.10 mph82%30.09 "HgN/A
11:30 PM
Sat, Mar 28
48 °FPassing clouds.6 mph94%30.09 "Hg6 mi
11:00 PM48 °FFog.5 mph94%30.09 "Hg1 mi
10:30 PM48 °FFog.9 mph94%30.09 "Hg1 mi
10:00 PM48 °FFog.9 mph94%30.12 "Hg2 mi
9:30 PM48 °FFog.10 mph94%30.12 "Hg2 mi
9:00 PM48 °FFog.9 mph94%30.12 "Hg3 mi
8:30 PM48 °FFog.9 mph94%30.15 "Hg3 mi
8:00 PM48 °FFog.10 mph94%30.15 "Hg2 mi
7:30 PM48 °FFog.9 mph94%30.15 "Hg2 mi
7:00 PM48 °FFog.9 mph94%30.12 "Hg3 mi
6:30 PM50 °FFog.9 mph88%30.12 "Hg2 mi
6:00 PM50 °FLow clouds.9 mph94%30.12 "HgN/A
5:30 PM50 °FMostly cloudy.8 mph94%30.12 "Hg4 mi
5:00 PM50 °FLight rain. Fog.9 mph94%30.12 "Hg1 mi
4:30 PM50 °FDrizzle. Mostly cloudy.9 mph94%30.15 "Hg5 mi
4:00 PM50 °FDrizzle. Fog.10 mph88%30.15 "Hg2 mi
3:30 PM50 °FDrizzle. Broken clouds.13 mph88%30.15 "HgN/A
3:00 PM50 °FOvercast.10 mph82%30.15 "HgN/A
2:30 PM50 °FOvercast.10 mph82%30.15 "HgN/A
2:00 PM50 °FMostly cloudy.12 mph76%30.15 "HgN/A
1:30 PM50 °FMostly cloudy.13 mph82%30.18 "HgN/A
1:00 PM48 °FMostly cloudy.14 mph82%30.18 "HgN/A
12:30 PM50 °FMore clouds than sun.14 mph71%30.18 "HgN/A
12:00 PM50 °FMostly cloudy.14 mph71%30.18 "HgN/A
11:30 AM50 °FMore clouds than sun.13 mph67%30.21 "HgN/A
11:00 AM50 °FMostly cloudy.12 mph67%30.21 "HgN/A
10:30 AM48 °FClear.8 mph71%30.21 "HgN/A
10:00 AM45 °FMostly cloudy.5 mph81%30.21 "HgN/A
9:30 AM43 °FMostly cloudy.3 mph81%30.24 "HgN/A
9:00 AM41 °FClear.5 mph87%30.21 "HgN/A
8:30 AM37 °FClear.2 mph93%30.24 "Hg6 mi
8:00 AM37 °FClear.3 mph87%30.24 "Hg5 mi
7:30 AM36 °FClear.2 mph93%30.24 "Hg4 mi
7:00 AM34 °FClear.No wind100%30.24 "HgN/A
Weather by CustomWeather, © 2015

See weather overviewHow to use our weather pages